Estación Meteorológica de la Universidad de Murcia
Estación Meteorológica de la Universidad de Murcia
Universidad de Murcia
 

Velocidad y dirección del vientoVelocidad y dirección del viento

 

Velocidad: 22,32 km/h a las 17:09:00 del día 03/10/2022
Dirección del viento: 122,4 º SE Rosa de los vientos a las 17:09:00 del día 03/10/2022

Nota:
N (entre 337,6º y 22,5º), NE (entre 22,6º y 67,5º), E (entre 67,6º y 112,5º), SE (entre 112,6º y 157,5º), S (entre 157,6º y 202,5º), SW (entre 202,6º y 247,5º), W (entre 247,5º y 292,5º) y NW (entre 292,6º y 337,5º)

||Velocidad últimos meses|| ----||Dirección del viento||


Velocidad

  • 1 - 22,32 km/h del día 03/10/2022
  • 2 - 22,32 km/h del día 02/10/2022
  • 3 - 23,76 km/h del día 01/10/2022
  • 4 - 42,48 km/h del día 30/09/2022
  • 5 - 37,44 km/h del día 29/09/2022
  • 6 - 27,36 km/h del día 28/09/2022
  • 7 - 28,08 km/h del día 27/09/2022
  • 8 - 39,6 km/h del día 26/09/2022
  • 9 - 39,96 km/h del día 25/09/2022
  • 10 - 28,08 km/h del día 24/09/2022
  • 11 - 36,36 km/h del día 23/09/2022
  • 12 - 33,48 km/h del día 22/09/2022
  • 13 - 19,08 km/h del día 21/09/2022
  • 14 - 28,08 km/h del día 20/09/2022
  • 15 - 28,8 km/h del día 19/09/2022
  • 16 - 39,24 km/h del día 18/09/2022
  • 17 - 34,2 km/h del día 17/09/2022
  • 18 - 32,4 km/h del día 16/09/2022
  • 19 - 28,8 km/h del día 15/09/2022
  • 20 - 20,52 km/h del día 14/09/2022
  • 21 - 25,92 km/h del día 13/09/2022
  • 22 - 30,6 km/h del día 12/09/2022
  • 23 - 30,6 km/h del día 11/09/2022
  • 24 - 30,96 km/h del día 10/09/2022
  • 25 - 28,8 km/h del día 09/09/2022
  • 26 - 30,6 km/h del día 08/09/2022
  • 27 - 25,56 km/h del día 07/09/2022
  • 28 - 30,96 km/h del día 06/09/2022
  • 29 - 30,96 km/h del día 05/09/2022
  • 30 - 31,32 km/h del día 04/09/2022
  • 31 - 29,88 km/h del día 03/09/2022
  • 32 - 30,24 km/h del día 02/09/2022
  • 33 - 32,4 km/h del día 01/09/2022
  • 34 - 28,08 km/h del día 31/08/2022
  • 35 - 24,48 km/h del día 30/08/2022
  • 36 - 30,24 km/h del día 29/08/2022
  • 37 - 40,68 km/h del día 28/08/2022
  • 38 - 33,12 km/h del día 27/08/2022
  • 39 - 33,12 km/h del día 26/08/2022
  • 40 - 32,4 km/h del día 25/08/2022
  • 41 - 27 km/h del día 24/08/2022
  • 42 - 27,36 km/h del día 23/08/2022
  • 43 - 33,84 km/h del día 22/08/2022
  • 44 - 32,04 km/h del día 21/08/2022
  • 45 - 34,92 km/h del día 20/08/2022
  • 46 - 34,92 km/h del día 19/08/2022
  • 47 - 30,24 km/h del día 18/08/2022
  • 48 - 37,08 km/h del día 17/08/2022
  • 49 - 31,32 km/h del día 16/08/2022
  • 50 - 34,92 km/h del día 15/08/2022
  • 51 - 23,4 km/h del día 14/08/2022
  • 52 - 60,48 km/h del día 13/08/2022
  • 53 - 28,8 km/h del día 12/08/2022
  • 54 - 34,2 km/h del día 11/08/2022
  • 55 - 32,76 km/h del día 10/08/2022
  • 56 - 35,64 km/h del día 09/08/2022
  • 57 - 36 km/h del día 08/08/2022
  • 58 - 26,64 km/h del día 07/08/2022
  • 59 - 33,48 km/h del día 06/08/2022

||Volver al inicio de la página||


Dirección del viento

  • 1 - 2126.67 º 2126,67 del día 31/08/2022
  • 2 - 2246.09 º 2246,09 del día 30/09/2022
  • 3 - 1688.67 º 1688,67 del día 30/08/2022
  • 4 - 2211.6 º 2211,6 del día 29/09/2022
  • 5 - 1350.94 º 1350,94 del día 29/08/2022
  • 6 - 2318.2 º 2318,2 del día 28/09/2022
  • 7 - 1289.8 º 1289,8 del día 28/08/2022
  • 8 - 2345.74 º 2345,74 del día 27/09/2022
  • 9 - 1582.03 º 1582,03 del día 27/08/2022
  • 10 - 1939.53 º 1939,53 del día 26/09/2022
  • 11 - 1466.2 º 1466,2 del día 26/08/2022
  • 12 - 1208.28 º 1208,28 del día 25/09/2022
  • 13 - 1370.9 º 1370,9 del día 25/08/2022
  • 14 - 1650.45 º 1650,45 del día 24/09/2022
  • 15 - 1465.87 º 1465,87 del día 24/08/2022
  • 16 - 1916.06 º 1916,06 del día 23/09/2022
  • 17 - 1522.2 º 1522,2 del día 23/08/2022
  • 18 - 1624.83 º 1624,83 del día 22/09/2022
  • 19 - 1453.88 º 1453,88 del día 22/08/2022
  • 20 - 1431.27 º 1431,27 del día 21/09/2022
  • 21 - 1829.53 º 1829,53 del día 21/08/2022
  • 22 - 1710.9 º 1710,9 del día 20/09/2022
  • 23 - 1329.83 º 1329,83 del día 20/08/2022
  • 24 - 1245.56 º 1245,56 del día 19/09/2022
  • 25 - 1436.46 º 1436,46 del día 19/08/2022
  • 26 - 839.86 º N del día 18/09/2022
  • 27 - 1912.8 º 1912,8 del día 18/08/2022
  • 28 - 1543.56 º 1543,56 del día 17/09/2022
  • 29 - 1962.51 º 1962,51 del día 17/08/2022
  • 30 - 1703.07 º 1703,07 del día 16/09/2022
  • 31 - 1872.79 º 1872,79 del día 16/08/2022
  • 32 - 2088.02 º 2088,02 del día 15/09/2022
  • 33 - 2021.08 º 2021,08 del día 15/08/2022
  • 34 - 1857.59 º 1857,59 del día 14/09/2022
  • 35 - 1846.18 º 1846,18 del día 14/08/2022
  • 36 - 1473.15 º 1473,15 del día 13/09/2022
  • 37 - 2142.44 º 2142,44 del día 13/08/2022
  • 38 - 1587.65 º 1587,65 del día 12/09/2022
  • 39 - 1659.74 º 1659,74 del día 12/08/2022
  • 40 - 1354.32 º 1354,32 del día 11/09/2022
  • 41 - 1616.43 º 1616,43 del día 11/08/2022
  • 42 - 1310.04 º 1310,04 del día 10/09/2022
  • 43 - 1213.28 º 1213,28 del día 10/08/2022
  • 44 - 1775.03 º 1775,03 del día 09/09/2022
  • 45 - 1401.9 º 1401,9 del día 09/08/2022
  • 46 - 1970.3 º 1970,3 del día 08/09/2022
  • 47 - 1359.6 º 1359,6 del día 08/08/2022
  • 48 - 1962.57 º 1962,57 del día 07/09/2022
  • 49 - 1669.88 º 1669,88 del día 07/08/2022
  • 50 - 1884.03 º 1884,03 del día 06/09/2022
  • 51 - 1551.15 º 1551,15 del día 06/08/2022
  • 52 - 2216.31 º 2216,31 del día 05/10/2022
  • 53 - 1398.25 º 1398,25 del día 05/09/2022
  • 54 - 940.29 º N del día 05/08/2022
  • 55 - 1370.98 º 1370,98 del día 04/10/2022
  • 56 - 1501.75 º 1501,75 del día 04/09/2022
  • 57 - 1767.88 º 1767,88 del día 03/10/2022
  • 58 - 1759.02 º 1759,02 del día 03/09/2022
  • 59 - 1723.67 º 1723,67 del día 02/10/2022
  • 60 - 1938.82 º 1938,82 del día 02/09/2022
  • 61 - 1982.87 º 1982,87 del día 01/10/2022
  • 62 - 1550.44 º 1550,44 del día 01/09/2022

|| Temperatura Ambiente|| Humedad relativa|| Precipitación|| Radiación Solar Global y PAR|| Temperatura y humedad del suelo|| Presión atmosférica|| Más información|| Volver a la página principal|| Volver al inicio de la página||


Estación Meteorológica de la Universidad de Murcia
http://estacion.um.es/
Informacion actualizada a: 05/10/2022 a las 13:30:00